Regional Weather Roundup
Issued by NWS Charleston, SC

Current Version | Previous Version | Text Only | Print | Product List | Glossary Off
Versions: 1 2 3 4 5 6 7 8 9 10 11 12 13 14 15 16 17 18 19 20 21 22 23 24 25 26 27 28 29 30 31 32 33 34 35 36 37 38 39 40 41 42 43 44 45 46 47 48 49 50

000
ASUS42 KCHS 210925
RWRCHS

REGIONAL WEATHER ROUNDUP
NATIONAL WEATHER SERVICE CHARLESTON SC
500 AM EDT MON APR 21 2014

NOTE: "FAIR" INDICATES FEW OR NO CLOUDS BELOW 12,000 FEET WITH NO
SIGNIFICANT WEATHER AND/OR OBSTRUCTIONS TO VISIBILITY.

NOT ALL STATIONS ARE QUALITY CONTROLLED BY THE NATIONAL
WEATHER SERVICE. USE DATA WITH CAUTION...ESPECIALLY
DEWPOINT OBSERVATIONS.

SCZ027-030-031-034>040-042>050-211000-
...SOUTH CAROLINA...

CITY           SKY/WX    TMP DP  RH WIND       PRES   REMARKS
N CHARLESTON   CLEAR     57  45  64 N10       30.06F
WATERFRONT PRK   N/A     59 N/A N/A N13G20      N/A
FORT JOHNSON     N/A     57  48  72 VRB12     30.10F
MOUNT PLEASANT FAIR     N/A N/A N/A N7        30.05S
JOHNS ISLAND   SUNNY     57  48  72 N8        30.06S
PINOPOLIS        N/A     59  46  63 NE14      29.99F
MONCKS CORNER  FAIR      57  48  72 N8        30.08S
SUMMERVILLE    NOT AVBL
BEAUFORT MCAS  CLEAR     58  48  69 NE10      30.07F
BEAUFORT ARPT  FAIR      57  50  77 N8        30.07S
HILTON HEAD IS PTCLDY    59  52  77 N9        30.08S
GEORGETOWN     NOT AVBL
WALTERBORO     SUNNY     55  50  82 N3        30.08F
ORANGEBURG     CLEAR     55  44  66 N8        30.11S
BARNWELL       FAIR      52  45  76 N7        30.11S
AIKEN          FAIR      50  45  81 N6        30.15F
MANNING        FAIR      55  41  58 N5        30.09F
KINGSTREE      NOT AVBL
COLUMBIA       CLEAR     50  43  77 CALM      30.12F
SUMTER         CLEAR     52  40  64 N7        30.10S
FLORENCE       CLEAR     53  39  59 N9        30.10F
MYRTLE BEACH   CLEAR     52  41  66 N14       30.06R
N MYRTLE BEACH CLEAR     52  42  69 N10       30.04F

$$

GAZ063-065-086>088-099>101-113>116-118-119-134-136>141-150-211000-
...GEORGIA...

CITY           SKY/WX    TMP DP  RH WIND       PRES   REMARKS
SAVANNAH ARPT  CLEAR     55  49  80 CALM      30.08F
HUNTER AAF     PTCLDY    55  52  88 NW2       30.06S
FORT STEWART   CLEAR     54  52  91 N1        30.07S
STATESBORO     NOT AVBL
SYLVANIA       SUNNY     55  48  75 N5        30.10F
CLAXTON        FAIR     N/A N/A N/A CALM      30.09F
THOMSON        CLEAR     42  42 100 CALM      30.18F
AUGUSTA-BUSH   CLEAR     47  42  83 N5        30.12F
AUGUSTA-DANIEL CLEAR     52  43  71 N9        30.13S
SWAINSBORO     FAIR      54  45  71 N3        30.11S
VIDALIA        CLEAR     54  46  76 N5        30.10S
ALMA           CLEAR     54  47  77 CALM      30.09S
WAYCROSS       NOT AVBL
JESUP          NOT AVBL
BRUNSWICK      CLEAR     54  52  94 N3        30.08S
SAINT SIMONS   CLOUDY    57  52  83 N6        30.07S

$$

SCZ027-028-034-036>038-045-046-048>050-GAZ119-141-211000-
...LAKE AND SUPPLEMENTAL COASTAL OBSERVATIONS...

STATION/POSITION TIME  TEMP    WIND        PRES    WAVE   SWELL
                       AIR SEA DIR/SP/G            HT/PER HT/PER/DIR
                 (UTC) (F)     (DEG/KT/KT) (MB)    (FT/S) (FT/S/D)
UPR LAKE MARION  NOT AVBL
WINYAH BAY       0900   54     340/  8     1017.0S
LAKE MURRAY      0900   51     340/  2/  5 1020.0S
ACE BASIN NERRS  0900   57      10/  2     1018.0S
FORT PULASKI     0900   60 58  350/  5/  6 1018.6R
SAPELO ISLAND    0900   56     330/  3     1018.0S

$$

ANZ835-935-AMZ111-154-330-350-352-354-374-450-454-472-211000-
...C-MAN AND BUOY OBSERVATIONS...

STATION/POSITION TIME  TEMP    WIND        PRES    WAVE   SWELL
                       AIR SEA DIR/SP/G            HT/PER HT/PER/DIR
                 (UTC) (F)     (DEG/KT/KT) (MB)    (FT/S) (FT/S/D)
FOLLY BEACH CMAN 0900   57     350/ 11/ 14 1018.0F
BUOY 41004       NOT AVBL
BUOY 41008       0900   62 63   30/ 17/ 19 1017.3F   5/ 6   2/ 70/12
5E ST. MARYS GA  0900      63                N/A     5/ 7   2/ 80/11
FRYING PAN BUOY  0900   57 67   10/ 27/ 31 1014.4S   9/ 8   3/100/ 9
BUOY 41025       0900   57 75  360/ 29/ 35 1012.7R  12/11   8/ 60/11
CAPE LOOKOUT NC  0900   51      10/ 25/ 30 1015.0F
BUOY 41002       NOT AVBL
BUOY 41010       0900   72 74  330/ 17/ 19 1013.1F   8/ 8   5/ 30/ 8
BUOY 41012       NOT AVBL
ST AUGUSTINE FL  0900   61     320/  4/  6 1018.1F
CAPERS NEARSHORE NOT AVBL
FRIPP NEARSHORE  0800   60      30/ 16/ 17   N/A


$$



USA.gov is the U.S. government's official web portal to all federal, state and local government web resources and services.